Beaufort, NC

5:44 PM EDT on August 23, 2017 (GMT -0400)
Smith

Weather History for KMRH - February, 2012

Change the Weather History Date:

Sunday, February 19, 2012

  Actual Average Record
Temperature  
Mean Temperature 50 °F -  
Max Temperature 54 °F 58 °F 70 °F (1984)
Min Temperature 44 °F 38 °F 17 °F (1958)
Degree Days  
Heating Degree Days 15    
Moisture  
Dew Point 48 °F    
Average Humidity 96    
Maximum Humidity 100    
Minimum Humidity 90    
Precipitation  
Precipitation 0.57 in - - ()
Sea Level Pressure  
Sea Level Pressure 29.80 in    
Wind  
Wind Speed 10 mph (NNE)    
Max Wind Speed 22 mph    
Max Gust Speed 32 mph    
Visibility 5 miles    
Events Rain    
Averages and records for this station are not official NWS values.
T = Trace of Precipitation, MM = Missing Value Source: NWS Daily Summary

Daily Weather History Graph

Daily Weather History Graph

Search for Another Location

Airport or City:

Trip Planner

Search our weather history database for the weather conditions in past years. The results will help you decide how hot, cold, wet, or windy it might be!

Date:

Astronomy

Feb. 19, 2012 Rise Set
Actual Time 6:48 AM EST 5:53 PM EST
Civil Twilight 6:22 AM EST 6:18 PM EST
Nautical Twilight 5:53 AM EST 6:48 PM EST
Astronomical Twilight 5:24 AM EST 7:17 PM EST
Moon 5:03 AM EST (2/19) 3:55 PM EST (2/19)
Length of Visible Light 11h 55m
Length of Day
11h 04m
Waning Crescent, 5% of the Moon is Illuminated
Feb 19
Waning Crescent
Feb 21
New
Feb 29
First Quarter
Mar 8
Full
Mar 14
Last Quarter

Hourly Weather History & Observations

Time (EST) Temp. Windchill Dew Point Humidity Pressure Visibility Wind Dir Wind Speed Gust Speed Precip Events Conditions
12:56 AM 54.0 °F - 51.1 °F 90% 29.97 in 10.0 mi Calm Calm - N/A   Overcast
1:56 AM 54.0 °F - 52.0 °F 93% 29.94 in 6.0 mi Calm Calm - 0.02 in Rain Light Rain
2:56 AM 54.0 °F - 53.1 °F 97% 29.91 in 6.0 mi North 5.8 mph - 0.02 in Rain Light Rain
3:56 AM 54.0 °F - 53.1 °F 97% 29.91 in 6.0 mi NE 4.6 mph - 0.06 in Rain Rain
4:43 AM 53.6 °F - 53.6 °F 100% 29.91 in 4.0 mi NE 6.9 mph - 0.05 in Rain Rain
4:56 AM 53.1 °F - 53.1 °F 100% 29.92 in 5.0 mi NNE 6.9 mph - 0.07 in Rain Rain
5:11 AM 53.6 °F - 53.6 °F 100% 29.91 in 6.0 mi NNE 6.9 mph - 0.01 in Rain Light Rain
5:56 AM 52.0 °F - 51.1 °F 97% 29.89 in 7.0 mi ENE 9.2 mph - 0.03 in Rain Light Rain
6:56 AM 52.0 °F - 51.1 °F 97% 29.87 in 7.0 mi NE 9.2 mph - 0.04 in Rain Rain
7:42 AM 51.8 °F - 50.0 °F 94% 29.88 in 7.0 mi NNE 11.5 mph - 0.00 in   Overcast
7:56 AM 50.0 °F - 48.9 °F 96% 29.88 in 6.0 mi NNE 10.4 mph 20.7 mph 0.01 in Rain Light Rain
8:21 AM 48.2 °F - 46.4 °F 93% 29.89 in 7.0 mi NNE 12.7 mph 20.7 mph 0.00 in   Overcast
8:40 AM 48.2 °F - 46.4 °F 93% 29.89 in 5.0 mi NE 13.8 mph 19.6 mph 0.00 in Rain Light Rain
8:54 AM 48.2 °F - 46.4 °F 93% 29.90 in 1.8 mi NNE 10.4 mph 18.4 mph 0.01 in Rain Rain
8:56 AM 48.9 °F - 48.0 °F 97% 29.90 in 1.8 mi NNE 10.4 mph 18.4 mph 0.01 in Rain Rain
9:18 AM 48.2 °F - 48.2 °F 100% 29.89 in 1.0 mi NNE 12.7 mph - 0.04 in Rain Rain
9:30 AM 48.2 °F - 48.2 °F 100% 29.89 in 1.2 mi NNE 15.0 mph 23.0 mph 0.05 in Rain Rain
9:56 AM 48.9 °F - 48.9 °F 100% 29.89 in 1.5 mi NNE 12.7 mph - 0.07 in Rain Light Rain
10:09 AM 50.0 °F - 48.2 °F 94% 29.88 in 2.5 mi NNE 11.5 mph 21.9 mph 0.01 in Rain Light Rain
10:26 AM 50.0 °F - 48.2 °F 94% 29.87 in 1.2 mi NE 12.7 mph 23.0 mph 0.03 in Rain Rain
10:51 AM 50.0 °F - 48.2 °F 94% 29.86 in 2.0 mi NNE 11.5 mph - 0.05 in Rain Light Rain
10:56 AM 50.0 °F - 48.9 °F 96% 29.86 in 2.5 mi NE 13.8 mph 20.7 mph 0.05 in Rain Light Rain
11:07 AM 50.0 °F - 48.2 °F 94% 29.86 in 4.0 mi NE 11.5 mph 20.7 mph 0.00 in Rain Light Rain
11:43 AM 50.0 °F - 48.2 °F 94% 29.84 in 2.5 mi NNE 10.4 mph 19.6 mph 0.01 in Rain Light Rain
11:53 AM 50.0 °F - 48.2 °F 94% 29.84 in 4.0 mi NNE 11.5 mph 19.6 mph 0.01 in Rain Light Rain
11:56 AM 50.0 °F - 48.9 °F 96% 29.84 in 3.0 mi NE 11.5 mph 19.6 mph 0.01 in Rain Light Rain
1:03 PM 50.0 °F - 48.2 °F 94% 29.79 in 1.8 mi NE 13.8 mph 23.0 mph 0.00 in Rain Light Rain
1:19 PM 48.2 °F - 48.2 °F 100% 29.78 in 3.0 mi NE 16.1 mph 23.0 mph 0.01 in Rain Light Rain
1:56 PM 48.9 °F - 48.9 °F 100% 29.74 in 4.0 mi NE 18.4 mph 25.3 mph 0.04 in Rain Rain
2:56 PM 48.9 °F - 48.0 °F 97% 29.70 in 4.0 mi NE 18.4 mph 28.8 mph 0.05 in Rain Light Rain
3:56 PM 48.0 °F - 46.9 °F 96% 29.67 in 2.5 mi NE 17.3 mph 27.6 mph 0.03 in Rain Rain
4:11 PM 48.2 °F - 46.4 °F 93% 29.67 in 4.0 mi NE 17.3 mph 29.9 mph 0.00 in Rain Light Rain
4:56 PM 48.0 °F - 46.9 °F 96% 29.65 in 6.0 mi NE 19.6 mph 29.9 mph 0.01 in Rain Light Rain
5:56 PM 48.0 °F - 46.9 °F 96% 29.63 in 9.0 mi NE 19.6 mph 32.2 mph 0.00 in   Overcast
6:56 PM 48.0 °F - 46.0 °F 93% 29.65 in 6.0 mi NNE 18.4 mph 25.3 mph 0.00 in Rain Light Rain
7:56 PM 46.9 °F - 46.0 °F 97% 29.65 in 9.0 mi North 12.7 mph 23.0 mph 0.03 in   Overcast
8:18 PM 46.4 °F 39.8 °F 46.4 °F 100% 29.63 in 10.0 mi North 16.1 mph 21.9 mph N/A   Overcast
8:56 PM 46.0 °F 38.0 °F 44.1 °F 93% 29.62 in 10.0 mi North 21.9 mph 28.8 mph N/A   Overcast
9:56 PM 46.9 °F - 44.1 °F 90% 29.66 in 10.0 mi NNW 13.8 mph 23.0 mph N/A   Overcast
10:05 PM 46.4 °F 40.7 °F 44.6 °F 93% 29.67 in 10.0 mi NNW 12.7 mph - N/A   Overcast
10:36 PM 46.4 °F 40.7 °F 44.6 °F 93% 29.66 in 10.0 mi North 12.7 mph 21.9 mph N/A   Overcast
10:56 PM 46.0 °F 38.8 °F 44.1 °F 93% 29.70 in 6.0 mi NNW 18.4 mph 24.2 mph 0.01 in Rain Light Rain
11:03 PM 46.4 °F 39.8 °F 44.6 °F 93% 29.69 in 5.0 mi North 16.1 mph 24.2 mph 0.00 in Rain Rain
11:19 PM 46.4 °F 39.5 °F 44.6 °F 93% 29.70 in 8.0 mi NNW 17.3 mph 23.0 mph 0.00 in Rain Light Rain
11:56 PM 44.1 °F 35.7 °F 43.0 °F 96% 29.72 in 7.0 mi NNW 20.7 mph 27.6 mph 0.01 in Rain Light Rain